THOR ABLESTAR DEB, 333

Orbit data source: Space-Track

THOR ABLESTAR DEB, 333 is space debris in LEO originally from a launch on Thu, 29 Jun 1961 UTC launched from the Air Force Eastern Test Range (AFETR). Debris objects in space refer to the collection of defunct objects orbiting the Earth. Examples of debris include non-operational satellites, rocket bodies, and fragments generated from explosions, collisions, or faulty payload assembly.

Loading next visibility...
Identifier
333, 1961-015DK
Orbit
LEO
Country
Flag of USUS
Related business
Manufacturer
Unknown
Mission
Spacecraft
Bus & Motor
Unknown
Mass
Unknown
Launch date (UTC)
1961-06-29 (65 years ago)
Launch vehicle
Unknown
Launch site
Air Force Eastern Test Range (AFETR)
Object type
Payload
Rocket body
Debris
Shape & HBR
Unknown shape, 0.1 m
Radar Cross Section
Medium (>0.1 m² and <1 m²)

Expand to show TLE details & history
Last TLE update: 10 hours ago

TLE from 10 hours ago
0 THOR ABLESTAR DEB
1   333U 61015DK  26166.34077329  .00005818  00000-0  67873-3 0  9994
2   333  66.6971 150.4840 0043021 284.5365  75.0991 14.85267518388547
Epoch: 2026-06-15T08:10Z
TLE epoch observation values (Epoch: 2026-06-15T08:10:42.812Z)
Latitude
-0.00001°
Longitude
124.17705°
Altitude
607.293 km
Speed
7.56 km/s
True Right ascension
10h 01m 56s
True Declination
0° 00' 00"
Sunlit
Object was in daylight at epoch
Visualization orbit readout
Latitude
Unknown
Longitude
Unknown
Altitude
Unknown
Speed
Unknown
Apparent Right ascension
Unknown
Apparent Declination
Unknown
Sunlit
N/A
Visualization observer readout
Local Sidereal Time
04:19:00
Azimuth
Unknown
Elevation
Unknown
Doppler factor
Unknown
Orbital elements
Apogee altitude
641.148 km
Perigee altitude
581.011 km
Semi-major axis
6,989.217 km
Eccentricity
0.0043
Inclination
66.6971°
RAAN
150.484°
Arg. of periapsis
284.5365°
True anomaly
75.57616°
Mean anomaly
75.0991°
Eccentric anomaly
75.33756°
Mean motion
3.7145 °/min
Orbital period
96.92 mins
BSTAR
0.00067873

Documentation

Showing up to 5 results
|